• In Hungary
  • List of Countries
  • For 7 days
  • Water Temperature
  • Satellite Maps
  • Weather Map
  • News
  • Weather Widgets
  • user-avatar
    Login

    Hourly Weather Myslec

    Today, 19 January, Friday

    Time Temperature Precipitation Wind Pressure Humidity
    00:00 -1°C° 0 mm 6 mps 713 mmHg 72%
    01:00 -1°C° 0 mm 4 mps 713 mmHg 77%
    02:00 -1°C° 0.1 mm 4 mps 713 mmHg 77%
    03:00 -1°C° 0.1 mm 5 mps 714 mmHg 77%
    04:00 -1°C° 0.1 mm 5 mps 714 mmHg 76%
    05:00 -1°C° 0 mm 5 mps 714 mmHg 77%
    06:00 -2°C° 0 mm 5 mps 715 mmHg 78%
    07:00 -2°C° 0 mm 4 mps 715 mmHg 80%
    08:00 -1°C° 0 mm 5 mps 716 mmHg 76%
    09:00 -1°C° 0 mm 5 mps 717 mmHg 73%
    10:00 -1°C° 0 mm 6 mps 718 mmHg 70%
    11:00 0°C° 0 mm 5 mps 718 mmHg 68%
    12:00 0°C° 0 mm 5 mps 718 mmHg 67%
    13:00 +1°C° 0 mm 5 mps 719 mmHg 65%
    14:00 0°C° 0 mm 4 mps 719 mmHg 71%
    15:00 0°C° 0 mm 3 mps 719 mmHg 76%
    16:00 -1°C° 0 mm 2 mps 720 mmHg 82%
    17:00 -2°C° 0 mm 2 mps 720 mmHg 85%
    18:00 0°C° 0 mm 1 mps 720 mmHg 87%
    19:00 -1°C° 0 mm 1 mps 721 mmHg 90%
    20:00 -1°C° 0 mm 1 mps 721 mmHg 90%
    21:00 -1°C° 0 mm 1 mps 722 mmHg 90%
    22:00 -1°C° 0 mm 1 mps 722 mmHg 90%
    23:00 -1°C° 0 mm 1 mps 722 mmHg 89%

    Tomorrow, 20 January, Saturday

    Time Temperature Precipitation Wind Pressure Humidity
    00:00 -1°C° 0 mm 1 mps 722 mmHg 89%
    01:00 -1°C° 0 mm 1 mps 723 mmHg 88%
    02:00 -1°C° 0 mm 1 mps 722 mmHg 88%
    03:00 -1°C° 0 mm 1 mps 722 mmHg 87%
    04:00 -2°C° 0 mm 1 mps 722 mmHg 87%
    05:00 -2°C° 0 mm 1 mps 722 mmHg 87%
    06:00 -2°C° 0 mm 1 mps 722 mmHg 86%
    07:00 -2°C° 0 mm 1 mps 722 mmHg 86%
    08:00 -1°C° 0 mm 1 mps 722 mmHg 81%
    09:00 0°C° 0 mm 1 mps 722 mmHg 77%
    10:00 +1°C° 0 mm 1 mps 723 mmHg 72%
    11:00 +2°C° 0 mm 1 mps 722 mmHg 70%
    12:00 +2°C° 0 mm 1 mps 722 mmHg 68%
    13:00 +3°C° 0 mm 1 mps 721 mmHg 66%
    14:00 +2°C° 0 mm 1 mps 721 mmHg 71%
    15:00 +1°C° 0 mm 1 mps 721 mmHg 75%
    16:00 +1°C° 0 mm 1 mps 720 mmHg 79%
    17:00 0°C° 0.1 mm 1 mps 720 mmHg 82%
    18:00 0°C° 0.1 mm 1 mps 720 mmHg 85%
    19:00 0°C° 0.1 mm 1 mps 720 mmHg 88%
    20:00 0°C° 0.2 mm 1 mps 720 mmHg 90%
    21:00 0°C° 0.2 mm 1 mps 720 mmHg 91%
    22:00 0°C° 0.2 mm 1 mps 720 mmHg 92%
    23:00 0°C° 0.1 mm 1 mps 720 mmHg 92%

    Day after tomorrow, 21 January, Sunday

    Time Temperature Precipitation Wind Pressure Humidity
    00:00 -1°C° 0.1 mm 1 mps 720 mmHg 92%
    01:00 -1°C° 0.1 mm 1 mps 719 mmHg 93%
    02:00 -1°C° 0.2 mm 1 mps 719 mmHg 93%
    03:00 -1°C° 0.2 mm 1 mps 719 mmHg 93%
    04:00 0°C° 0.2 mm 1 mps 719 mmHg 93%
    05:00 0°C° 0.4 mm 1 mps 719 mmHg 94%
    06:00 0°C° 0.4 mm 1 mps 719 mmHg 94%
    07:00 0°C° 0.4 mm 1 mps 719 mmHg 94%
    08:00 0°C° 0.5 mm 1 mps 720 mmHg 93%
    09:00 0°C° 0.5 mm 1 mps 720 mmHg 92%
    10:00 -2°C° 0.5 mm 2 mps 720 mmHg 92%
    11:00 -2°C° 0.6 mm 2 mps 720 mmHg 92%
    12:00 -2°C° 0.6 mm 2 mps 720 mmHg 92%
    13:00 -1°C° 0.6 mm 2 mps 720 mmHg 92%
    14:00 -2°C° 0.5 mm 2 mps 720 mmHg 92%
    15:00 -2°C° 0.5 mm 3 mps 721 mmHg 93%
    16:00 -2°C° 0.5 mm 3 mps 721 mmHg 93%
    17:00 -4°C° 0.3 mm 3 mps 722 mmHg 92%
    18:00 -4°C° 0.3 mm 3 mps 722 mmHg 92%
    19:00 -4°C° 0.3 mm 4 mps 723 mmHg 91%
    20:00 -4°C° 0.1 mm 3 mps 723 mmHg 91%
    21:00 -4°C° 0.1 mm 3 mps 724 mmHg 91%
    22:00 -5°C° 0.1 mm 3 mps 724 mmHg 91%
    23:00 -5°C° 0.1 mm 3 mps 725 mmHg 91%

    22 January, Monday

    Time Temperature Precipitation Wind Pressure Humidity
    00:00 -5°C° 0.1 mm 3 mps 725 mmHg 91%
    01:00 -5°C° 0.1 mm 3 mps 725 mmHg 91%
    02:00 -5°C° 0.1 mm 3 mps 726 mmHg 92%
    03:00 -6°C° 0.1 mm 3 mps 726 mmHg 92%
    04:00 -6°C° 0.1 mm 3 mps 726 mmHg 93%
    05:00 -5°C° 0.1 mm 2 mps 727 mmHg 93%
    06:00 -5°C° 0.1 mm 2 mps 727 mmHg 93%
    07:00 -5°C° 0.1 mm 2 mps 727 mmHg 94%
    08:00 -3°C° 0 mm 1 mps 728 mmHg 91%
    09:00 -2°C° 0 mm 1 mps 728 mmHg 88%
    10:00 -2°C° 0 mm 1 mps 728 mmHg 86%
    11:00 -1°C° 0 mm 1 mps 728 mmHg 83%
    12:00 -1°C° 0 mm 1 mps 728 mmHg 80%
    13:00 0°C° 0 mm 1 mps 728 mmHg 78%
    14:00 -1°C° 0 mm 1 mps 728 mmHg 80%
    15:00 -4°C° 0 mm 2 mps 728 mmHg 83%
    16:00 -4°C° 0 mm 2 mps 728 mmHg 85%
    17:00 -5°C° 0 mm 2 mps 728 mmHg 87%
    18:00 -5°C° 0 mm 2 mps 728 mmHg 88%
    19:00 -6°C° 0 mm 2 mps 728 mmHg 89%
    20:00 -6°C° 0 mm 2 mps 728 mmHg 89%
    21:00 -6°C° 0 mm 2 mps 728 mmHg 88%
    22:00 -6°C° 0 mm 2 mps 728 mmHg 88%
    23:00 -6°C° 0 mm 2 mps 728 mmHg 87%

    23 January, Tuesday

    Time Temperature Precipitation Wind Pressure Humidity
    00:00 -6°C° 0 mm 2 mps 728 mmHg 87%
    01:00 -6°C° 0 mm 2 mps 728 mmHg 86%
    02:00 -6°C° 0 mm 2 mps 728 mmHg 86%
    03:00 -6°C° 0 mm 2 mps 728 mmHg 87%
    04:00 -6°C° 0 mm 2 mps 728 mmHg 87%
    05:00 -6°C° 0 mm 2 mps 728 mmHg 87%
    06:00 -5°C° 0 mm 2 mps 729 mmHg 86%
    07:00 -5°C° 0 mm 2 mps 729 mmHg 86%
    08:00 -4°C° 0.1 mm 2 mps 730 mmHg 86%
    09:00 -4°C° 0.1 mm 2 mps 730 mmHg 87%
    10:00 -3°C° 0.1 mm 2 mps 731 mmHg 87%
    11:00 -2°C° 0.2 mm 2 mps 731 mmHg 87%
    12:00 -2°C° 0.2 mm 2 mps 731 mmHg 87%
    13:00 -1°C° 0.2 mm 2 mps 732 mmHg 87%
    14:00 -1°C° 0.1 mm 2 mps 732 mmHg 88%
    15:00 -1°C° 0.1 mm 2 mps 732 mmHg 89%
    16:00 +1°C° 0.1 mm 1 mps 733 mmHg 91%
    17:00 +1°C° 0 mm 1 mps 733 mmHg 91%
    18:00 -2°C° 0 mm 2 mps 733 mmHg 92%
    19:00 -2°C° 0 mm 2 mps 734 mmHg 92%
    20:00 -2°C° 0 mm 2 mps 734 mmHg 92%
    21:00 -2°C° 0 mm 2 mps 734 mmHg 92%
    22:00 -3°C° 0 mm 2 mps 735 mmHg 92%
    23:00 -3°C° 0 mm 2 mps 735 mmHg 92%

    24 January, Wednesday

    Time Temperature Precipitation Wind Pressure Humidity
    00:00 -3°C° 0 mm 2 mps 735 mmHg 91%
    01:00 -4°C° 0 mm 2 mps 735 mmHg 91%
    02:00 -4°C° 0 mm 2 mps 735 mmHg 91%
    03:00 -4°C° 0 mm 2 mps 735 mmHg 91%
    04:00 -4°C° 0 mm 2 mps 735 mmHg 90%
    05:00 -4°C° 0 mm 2 mps 735 mmHg 90%
    06:00 -3°C° 0 mm 2 mps 735 mmHg 89%
    07:00 -3°C° 0 mm 2 mps 736 mmHg 89%
    08:00 -2°C° 0 mm 2 mps 736 mmHg 89%
    09:00 -1°C° 0 mm 2 mps 736 mmHg 88%
    10:00 +1°C° 0 mm 2 mps 737 mmHg 88%
    11:00 +2°C° 0 mm 2 mps 737 mmHg 89%
    12:00 +2°C° 0 mm 2 mps 737 mmHg 90%
    13:00 +3°C° 0 mm 2 mps 737 mmHg 91%
    14:00 +2°C° 0 mm 2 mps 737 mmHg 92%
    15:00 +2°C° 0 mm 2 mps 737 mmHg 92%
    16:00 +1°C° 0 mm 2 mps 737 mmHg 92%
    17:00 +1°C° 0 mm 2 mps 737 mmHg 92%
    18:00 -1°C° 0 mm 2 mps 737 mmHg 92%
    19:00 -2°C° 0 mm 2 mps 737 mmHg 93%
    20:00 -2°C° 0 mm 2 mps 737 mmHg 92%
    21:00 -2°C° 0 mm 2 mps 737 mmHg 92%
    22:00 -2°C° 0 mm 2 mps 737 mmHg 92%
    23:00 -2°C° 0 mm 2 mps 737 mmHg 92%
    Show more